Location: Newark
(40.3500°N, 15.2333°E)
Time: 00:01:27
(UTC+00:00)

NOAA 15 - Pass Details

Date: 25 February 2020
Orbit: 797 x 813 km, 98.7° (Epoch: 01 April)

Event Time Altitude Azimuth Distance (km) Brightness Sun altitude
Rises 17:55:44 0° 178° (S) 3,318 7.8 -14.1°
Reaches altitude 10° 17:58:06 10° 183° (S) 2,392 7.1 -14.6°
Maximum altitude 18:03:16 53° 259° (W) 990 5.5 -15.6°
Drops below altitude 10° 18:08:29 10° 337° (NNW) 2,410 7.4 -16.6°
Sets 18:10:54 0° 342° (NNW) 3,345 8.1 -17.0°
